Durango, Mexico

3:50 AM CDT on May 27, 2018 (GMT -0500)
Durango

Weather History for MMDO - December, 2012

Change the Weather History Date:

Tuesday, December 4, 2012

  Actual Average Record
Temperature  
Mean Temperature 59 °F -  
Max Temperature 78 °F 70 °F 84 °F (2017)
Min Temperature 40 °F 31 °F 26 °F (1997)
Degree Days  
Heating Degree Days 6    
Growing Degree Days 9 (Base 50)    
Moisture  
Dew Point 29 °F    
Average Humidity 33    
Maximum Humidity 81    
Minimum Humidity 8    
Precipitation  
Precipitation 0.00 in - - ()
Sea Level Pressure  
Sea Level Pressure 30.18 in    
Wind  
Wind Speed 2 mph ()    
Max Wind Speed 9 mph    
Max Gust Speed -    
Visibility 11.4 miles    
Events      
Averages and records for this station are not official NWS values.
T = Trace of Precipitation, MM = Missing Value Source: Averaged Metar Reports

Daily Weather History Graph

Daily Weather History Graph

Search for Another Location

Airport or City:

Astronomy

Dec. 04, 2012 Rise Set
Actual Time 7:26 AM CST 6:10 PM CST
Civil Twilight 7:02 AM CST 6:34 PM CST
Nautical Twilight 6:34 AM CST 7:02 PM CST
Astronomical Twilight 6:06 AM CST 7:30 PM CST
Moon 11:35 PM CST (12/4) 11:44 AM CST (12/4)
Length of Visible Light 11h 32m
Length of Day
10h 43m
Waning Gibbous, 69% of the Moon is Illuminated
Dec 4
Waning Gibbous
Dec 6
Last Quarter
Dec 13
New
Dec 19
First Quarter
Dec 28
Full

Hourly Weather History & Observations

Time (CST) Temp. Dew Point Humidity Pressure Visibility Wind Dir Wind Speed Gust Speed Precip Events Conditions
5:56 AM 44 °F 31 °F 47% 30.06 in 6 mi Calm Calm - -  
6:06 AM 35.6 °F 28.4 °F 75% 30.12 in 8.0 mi Calm Calm - N/A   Clear
6:46 AM 35.6 °F 30.2 °F 81% 30.34 in 10.0 mi SSE 2.3 mph - N/A   Clear
7:41 AM 35.6 °F 28.4 °F 75% 30.36 in 12.0 mi Calm Calm - N/A   Clear
8:45 AM 48 °F 31 °F 40% 30.20 in 25 mi Calm Calm - -  
8:47 AM 42.8 °F 32.0 °F 66% 30.19 in 12.0 mi NNW 2.3 mph - N/A   Clear
9:46 AM 53.6 °F 32.0 °F 44% 30.41 in 12.0 mi WNW 2.3 mph - N/A   Clear
10:44 AM 60.8 °F 32.0 °F 34% 30.41 in 12.0 mi Calm Calm - N/A   Clear
11:51 AM 68 °F 34 °F 18% 30.19 in 25 mi North 2.2 mph - -  
11:51 AM 68.0 °F 32.0 °F 26% 30.06 in 14.0 mi Calm Calm - N/A   Clear
12:47 PM 69.8 °F 26.6 °F 20% 30.35 in 14.0 mi NNW 3.5 mph - N/A   Clear
1:45 PM 73.4 °F 23.0 °F 15% 30.31 in 14.0 mi NE 3.5 mph - N/A   Clear
2:48 PM 75.2 °F 21.2 °F 13% 30.05 in 14.0 mi Calm Calm - N/A   Clear
2:54 PM 76 °F 27 °F 8% 30.01 in 25 mi NNW 2.2 mph - -  
3:00 PM 76 °F 27 °F 8% 30.01 in 25 mi NNW 2.2 mph - -   Scattered Clouds
3:49 PM 75.2 °F 21.2 °F 13% 30.26 in 14.0 mi NE 9.2 mph - N/A   Clear
4:46 PM 75.2 °F 21.2 °F 13% 30.26 in 14.0 mi NE 5.8 mph - N/A   Clear
5:49 PM 71.6 °F 23.0 °F 16% 30.06 in 14.0 mi NE 9.2 mph - N/A   Clear
5:55 PM 72 °F 36 °F 17% 29.92 in 25 mi ESE 4.5 mph - -  
6:46 PM 62.6 °F 24.8 °F 24% 30.30 in 14.0 mi NNE 8.1 mph - N/A   Clear
7:49 PM 59.0 °F 24.8 °F 27% 30.32 in 10.0 mi NNE 6.9 mph - N/A   Clear
8:55 PM 60 °F 36 °F 28% 29.94 in 6 mi Calm Calm - -  
11:55 PM 53 °F 37 °F 44% 30.01 in 6 mi Calm Calm - -